Location: Schommer Observatory
(40.5200°N, 74.4500°W)
Time: 11:08:31
(UTC-05:00)

AO-85 - Visible Passes

Search period start: 23 January 2018 00:00
Search period end: 02 February 2018 00:00
Orbit: 509 x 777 km, 64.8° (Epoch: 18 January)

Date Brightness Start Highest point End Pass type
(mag) Time Alt. Az. Time Alt. Az. Time Alt. Az.
23 Jan ? 19:09:40 10° NNW 19:12:10 25° N 19:12:10 25° N visible
24 Jan ? 17:55:40 10° N 17:58:12 14° NE 17:59:40 12° ENE visible
24 Jan ? 19:34:23 10° NNW 19:37:21 37° NNW 19:37:21 37° NNW visible
25 Jan ? 18:19:35 10° N 18:23:43 26° NE 18:25:05 23° ENE visible
25 Jan ? 19:59:30 10° NW 20:02:47 36° WNW 20:02:47 36° WNW visible
26 Jan ? 18:44:07 10° NNW 18:48:59 52° NE 18:50:51 35° ESE visible
26 Jan ? 20:25:18 10° WNW 20:28:36 21° WSW 20:28:36 21° WSW visible
27 Jan ? 19:09:02 10° NW 19:14:02 72° WSW 19:17:12 24° SSE visible
28 Jan ? 17:53:55 10° NNW 17:58:32 37° NE 18:03:24 10° ESE visible
28 Jan ? 19:34:27 10° NW 19:38:55 31° WSW 19:43:32 10° S visible
29 Jan ? 18:18:39 10° NNW 18:23:41 81° ENE 18:29:00 10° SE visible
29 Jan ? 20:01:06 10° WNW 20:03:35 14° WSW 20:06:06 10° SW visible
30 Jan ? 18:43:49 10° NW 18:48:39 45° WSW 18:53:41 10° S visible
31 Jan ? 19:09:43 10° WNW 19:13:24 20° WSW 19:17:11 10° SSW visible
01 Feb ? 17:53:19 10° NW 17:58:20 66° WSW 18:03:36 10° SSE visible
